Weather History for KCDH - March, 2013

Change the Weather History Date:

Tuesday, March 19, 2013

  Actual Average (KELD) Record (KELD)
Temperature  
Mean Temperature 52 °F 57 °F  
Max Temperature 68 °F 69 °F 87 °F (1982)
Min Temperature 35 °F 44 °F 20 °F (1923)
Degree Days  
Heating Degree Days 14 9  
Month to date heating degree days 216  
Since 1 July heating degree days 2444  
Cooling Degree Days 0 1  
Month to date cooling degree days 10  
Year to date cooling degree days 16  
Growing Degree Days 2 (Base 50)    
Moisture  
Dew Point 33 °F    
Average Humidity 58    
Maximum Humidity 100    
Minimum Humidity 21    
Precipitation  
Precipitation 0.00 in 0.14 in 1.48 in (1938)
Month to date precipitation 3.00  
Year to date precipitation 12.09  
Snow  
Snow 0.00 in - - ()
Month to date snowfall  
Since 1 July snowfall  
Snow Depth -    
Sea Level Pressure  
Sea Level Pressure 30.11 in    
Wind  
Wind Speed 3 mph (NE)    
Max Wind Speed 16 mph    
Max Gust Speed 21 mph    
Visibility 9 miles    
Events Fog    
T = Trace of Precipitation, MM = Missing Value Source: NWS Daily Summary

Daily Weather History Graph

Daily Weather History Graph

Search for Another Location

Airport or City:

Trip Planner

Search our weather history database for the weather conditions in past years. The results will help you decide how hot, cold, wet, or windy it might be!

Date:

Astronomy

Mar. 19, 2013 Rise Set
Actual Time 7:15 AM CDT 7:22 PM CDT
Civil Twilight 6:50 AM CDT 7:46 PM CDT
Nautical Twilight 6:21 AM CDT 8:15 PM CDT
Astronomical Twilight 5:52 AM CDT 8:45 PM CDT
Moon 12:22 PM CDT (3/19) 1:53 AM CDT (3/19)
Length of Visible Light 12h 56m
Length of Day
12h 06m
Waxing Crescent, 50% of the Moon is Illuminated
Mar 19
Waxing Crescent
Mar 19
First Quarter
Mar 27
Full
Apr 2
Last Quarter
Apr 10
New

Hourly Weather History & Observations

Time (CDT) Temp. Dew Point Humidity Pressure Visibility Wind Dir Wind Speed Gust Speed Precip Events Conditions
12:15 AM 46.4 °F 42.8 °F 87% 30.05 in 10.0 mi Calm Calm - N/A   Clear
12:35 AM 46.4 °F 42.8 °F 87% 30.06 in 10.0 mi Calm Calm - N/A   Clear
12:55 AM 44.6 °F 42.8 °F 93% 30.06 in 10.0 mi Calm Calm - N/A   Clear
1:15 AM 44.6 °F 41.0 °F 87% 30.07 in 8.0 mi Calm Calm - N/A   Clear
1:35 AM 42.8 °F 41.0 °F 93% 30.07 in 4.0 mi Calm Calm - N/A   Clear
1:55 AM 42.8 °F 41.0 °F 93% 30.07 in 5.0 mi Calm Calm - N/A   Clear
2:15 AM 41.0 °F 39.2 °F 93% 30.08 in 0.2 mi Calm Calm - N/A Fog Fog
2:35 AM 41.0 °F 39.2 °F 93% 30.08 in 7.0 mi Calm Calm - N/A   Clear
2:55 AM 41.0 °F 39.2 °F 93% 30.06 in 5.0 mi Calm Calm - N/A   Clear
3:15 AM 41.0 °F 39.2 °F 93% 30.06 in 10.0 mi Calm Calm - N/A   Clear
3:35 AM 41.0 °F 39.2 °F 93% 30.06 in 10.0 mi Calm Calm - N/A   Clear
3:55 AM 39.2 °F 37.4 °F 93% 30.05 in 6.0 mi Calm Calm - N/A   Clear
4:15 AM 39.2 °F 37.4 °F 93% 30.05 in 6.0 mi Calm Calm - N/A   Clear
4:35 AM 37.4 °F 35.6 °F 93% 30.04 in 8.0 mi Calm Calm - N/A   Clear
4:55 AM 37.4 °F 35.6 °F 93% 30.03 in 5.0 mi Calm Calm - N/A   Clear
5:15 AM 37.4 °F 35.6 °F 93% 30.04 in 9.0 mi Calm Calm - N/A   Clear
5:35 AM 37.4 °F 35.6 °F 93% 30.04 in 7.0 mi Calm Calm - N/A   Clear
5:55 AM 35.6 °F 35.6 °F 100% 30.05 in 5.0 mi Calm Calm - N/A   Clear
6:15 AM 35.6 °F 33.8 °F 93% 30.05 in 9.0 mi Calm Calm - N/A   Clear
6:35 AM 37.4 °F 35.6 °F 93% 30.07 in 8.0 mi Calm Calm - N/A   Clear
6:55 AM 35.6 °F 33.8 °F 93% 30.08 in 7.0 mi Calm Calm - N/A   Clear
7:15 AM 35.6 °F 32.0 °F 87% 30.09 in 9.0 mi Calm Calm - N/A   Clear
7:35 AM 35.6 °F 33.8 °F 93% 30.11 in 8.0 mi Calm Calm - N/A   Clear
7:55 AM 35.6 °F 33.8 °F 93% 30.11 in 9.0 mi Calm Calm - N/A   Clear
8:15 AM 37.4 °F 35.6 °F 93% 30.13 in 8.0 mi Calm Calm - N/A   Clear
8:35 AM 41.0 °F 39.2 °F 93% 30.13 in 7.0 mi Calm Calm - N/A   Clear
8:55 AM 44.6 °F 41.0 °F 87% 30.14 in 10.0 mi Calm Calm - N/A   Clear
9:15 AM 44.6 °F 41.0 °F 87% 30.15 in 10.0 mi Calm Calm - N/A   Clear
9:35 AM 48.2 °F 41.0 °F 76% 30.15 in 10.0 mi NE 3.5 mph - N/A   Clear
9:55 AM 48.2 °F 41.0 °F 76% 30.16 in 10.0 mi East 3.5 mph - N/A   Clear
10:15 AM 53.6 °F 41.0 °F 62% 30.18 in 10.0 mi Calm Calm - N/A   Clear
10:35 AM 55.4 °F 39.2 °F 54% 30.18 in 10.0 mi East 5.8 mph - N/A   Clear
10:55 AM 57.2 °F 37.4 °F 48% 30.19 in 10.0 mi East 5.8 mph - N/A   Clear
11:15 AM 59.0 °F 33.8 °F 39% 30.18 in 10.0 mi ENE 9.2 mph - N/A   Clear
11:35 AM 60.8 °F 32.0 °F 34% 30.19 in 10.0 mi ENE 10.4 mph 16.1 mph N/A   Clear
11:55 AM 60.8 °F 32.0 °F 34% 30.18 in 10.0 mi ENE 9.2 mph - N/A   Clear
12:15 PM 62.6 °F 28.4 °F 27% 30.17 in 10.0 mi East 12.7 mph 19.6 mph N/A   Clear
12:35 PM 62.6 °F 28.4 °F 27% 30.16 in 10.0 mi ENE 11.5 mph 18.4 mph N/A   Clear
12:55 PM 64.4 °F 26.6 °F 24% 30.16 in 10.0 mi ENE 12.7 mph 17.3 mph N/A   Clear
1:15 PM 64.4 °F 28.4 °F 26% 30.16 in 10.0 mi NE 12.7 mph 20.7 mph N/A   Clear
1:35 PM 64.4 °F 26.6 °F 24% 30.15 in 10.0 mi East 8.1 mph 17.3 mph N/A   Clear
1:55 PM 66.2 °F 28.4 °F 24% 30.13 in 10.0 mi ENE 11.5 mph 16.1 mph N/A   Clear
2:15 PM 66.2 °F 26.6 °F 23% 30.12 in 10.0 mi NE 16.1 mph - N/A   Clear
2:35 PM 66.2 °F 24.8 °F 21% 30.10 in 10.0 mi ENE 11.5 mph 17.3 mph N/A   Clear
2:55 PM 66.2 °F 24.8 °F 21% 30.09 in 10.0 mi ENE 9.2 mph 16.1 mph N/A   Clear
3:15 PM 68.0 °F 26.6 °F 21% 30.08 in 10.0 mi ENE 12.7 mph 17.3 mph N/A   Clear
3:35 PM 66.2 °F 24.8 °F 21% 30.07 in 10.0 mi East 8.1 mph - N/A   Clear
3:55 PM 66.2 °F 26.6 °F 23% 30.07 in 10.0 mi NE 8.1 mph - N/A   Clear
4:15 PM 66.2 °F 26.6 °F 23% 30.07 in 10.0 mi NE 5.8 mph - N/A   Clear
4:35 PM 66.2 °F 28.4 °F 24% 30.06 in 10.0 mi NE 10.4 mph - N/A   Clear
4:55 PM 64.4 °F 28.4 °F 26% 30.06 in 10.0 mi NNE 10.4 mph - N/A   Clear
5:15 PM 64.4 °F 26.6 °F 24% 30.07 in 10.0 mi ENE 9.2 mph - N/A   Clear
5:35 PM 62.6 °F 28.4 °F 27% 30.07 in 10.0 mi ENE 6.9 mph - N/A   Clear
5:55 PM 62.6 °F 30.2 °F 30% 30.07 in 10.0 mi NE 6.9 mph - N/A   Clear
6:15 PM 62.6 °F 32.0 °F 32% 30.08 in 10.0 mi NE 5.8 mph - N/A   Clear
6:35 PM 60.8 °F 32.0 °F 34% 30.08 in 10.0 mi NE 9.2 mph - N/A   Clear
6:55 PM 59.0 °F 32.0 °F 36% 30.08 in 10.0 mi ENE 6.9 mph - N/A   Clear
7:15 PM 57.2 °F 32.0 °F 38% 30.09 in 10.0 mi NE 6.9 mph - N/A   Clear
7:35 PM 57.2 °F 32.0 °F 38% 30.09 in 10.0 mi NE 8.1 mph - N/A   Clear
7:55 PM 55.4 °F 32.0 °F 41% 30.09 in 10.0 mi NE 8.1 mph - N/A   Clear
8:15 PM 55.4 °F 32.0 °F 41% 30.09 in 10.0 mi NNE 5.8 mph - N/A   Clear
8:35 PM 55.4 °F 32.0 °F 41% 30.10 in 10.0 mi NNE 8.1 mph - N/A   Clear
8:55 PM 55.4 °F 32.0 °F 41% 30.12 in 10.0 mi NNE 9.2 mph - N/A   Clear
9:15 PM 53.6 °F 32.0 °F 44% 30.13 in 10.0 mi NNE 8.1 mph - N/A   Clear
9:35 PM 53.6 °F 32.0 °F 44% 30.14 in 10.0 mi NNE 8.1 mph - N/A   Clear
9:55 PM 53.6 °F 30.2 °F 41% 30.15 in 10.0 mi NNE 9.2 mph - N/A   Clear
10:15 PM 51.8 °F 30.2 °F 44% 30.15 in 10.0 mi NNE 9.2 mph - N/A   Clear
10:35 PM 51.8 °F 30.2 °F 44% 30.15 in 10.0 mi NE 9.2 mph - N/A   Clear
10:55 PM 51.8 °F 28.4 °F 41% 30.16 in 10.0 mi NNE 9.2 mph - N/A   Clear
11:15 PM 50.0 °F 30.2 °F 47% 30.17 in 10.0 mi NNE 6.9 mph - N/A   Clear
11:35 PM 50.0 °F 30.2 °F 47% 30.18 in 10.0 mi NNE 6.9 mph - N/A   Clear
11:55 PM 50.0 °F 30.2 °F 47% 30.19 in 10.0 mi NNE 6.9 mph - N/A   Clear